Weather History for RKSG - March, 2013

Change the Weather History Date:

Wednesday, March 6, 2013

  Actual Average Record
Temperature  
Mean Temperature 42 °F -  
Max Temperature 59 °F 45 °F 59 °F (2013)
Min Temperature 25 °F 29 °F 19 °F (2005)
Degree Days  
Heating Degree Days 23    
Moisture  
Dew Point 29 °F    
Average Humidity 61    
Maximum Humidity 100    
Minimum Humidity 7    
Precipitation  
Precipitation 0.00 in - - ()
Sea Level Pressure  
Sea Level Pressure 30.14 in    
Wind  
Wind Speed 3 mph ()    
Max Wind Speed 8 mph    
Max Gust Speed -    
Visibility 7.8 miles    
Events      
Averages and records for this station are not official NWS values.
T = Trace of Precipitation, MM = Missing Value Source: Averaged Metar Reports

Daily Weather History Graph

Daily Weather History Graph

Search for Another Location

Airport or City:

Trip Planner

Search our weather history database for the weather conditions in past years. The results will help you decide how hot, cold, wet, or windy it might be!

Date:

Astronomy

Mar. 06, 2013 Rise Set
Actual Time 6:56 AM KST 6:30 PM KST
Civil Twilight 6:30 AM KST 6:56 PM KST
Nautical Twilight 6:00 AM KST 7:26 PM KST
Astronomical Twilight 5:30 AM KST 7:56 PM KST
Moon 2:25 AM KST (3/6) 12:40 PM KST (3/6)
Length of Visible Light 12h 26m
Length of Day
11h 34m
Last Quarter, 36% of the Moon is Illuminated
Mar 6
Last Quarter
Mar 12
New
Mar 20
First Quarter
Mar 27
Full
Apr 3
Last Quarter

Hourly Weather History & Observations

Time (KST) Temp. Windchill Dew Point Humidity Pressure Visibility Wind Dir Wind Speed Gust Speed Precip Events Conditions
12:00 AM 32 °F - 20 °F 49% 30.24 in - East 3.5 mph - -  
12:55 AM 29.8 °F 26.3 °F 29.8 °F 100% 30.24 in 5.0 mi SE 3.5 mph - N/A   Clear
1:55 AM 30.9 °F 27.5 °F 30.9 °F 100% 30.23 in 5.0 mi ESE 3.5 mph - N/A   Clear
2:55 AM 29.8 °F 26.3 °F 29.8 °F 100% 30.22 in 5.0 mi ESE 3.5 mph - N/A   Clear
3:00 AM 28 °F - 20 °F 63% 30.25 in - Calm Calm - -  
3:55 AM 28.8 °F 23.7 °F 28.8 °F 100% 30.20 in 6.0 mi SE 4.6 mph - N/A   Clear
4:55 AM 29.7 °F 24.7 °F 29.7 °F 100% 30.19 in 8.0 mi East 4.6 mph - N/A   Clear
5:55 AM 30.0 °F 26.5 °F 30.0 °F 100% 30.20 in 7.0 mi ESE 3.5 mph - N/A   Clear
6:00 AM 26 °F - 21 °F 76% 30.25 in - Calm Calm - -  
6:55 AM 28.8 °F 25.0 °F 28.8 °F 100% 30.21 in 6.0 mi ESE 3.5 mph - N/A   Clear
7:55 AM 30.4 °F 25.6 °F 30.4 °F 100% 30.22 in 6.0 mi East 4.6 mph - N/A   Clear
8:55 AM 36.0 °F 29.6 °F 32.2 °F 86% 30.22 in 10.0 mi ESE 8.1 mph - N/A   Clear
9:00 AM 33 °F - 25 °F 62% 30.27 in - Calm Calm - -  
9:55 AM 41.0 °F 38.0 °F 28.9 °F 62% 30.22 in 10.0 mi East 4.6 mph - N/A   Clear
10:55 AM 45.5 °F 43.2 °F 26.8 °F 48% 30.21 in 10.0 mi ESE 4.6 mph - N/A   Clear
11:55 AM 50.5 °F - 26.4 °F 39% 30.20 in 10.0 mi East 6.9 mph - N/A   Clear
12:00 PM 49 °F - 20 °F 19% 30.22 in - North 1.2 mph - -  
12:55 PM 53.8 °F - 24.8 °F 33% 30.18 in 10.0 mi ENE 4.6 mph - N/A   Partly Cloudy
1:55 PM 57.7 °F - 25.5 °F 29% 30.14 in 10.0 mi Calm Calm - N/A   Partly Cloudy
2:55 PM 60.8 °F - 25.7 °F 26% 30.11 in 10.0 mi Calm Calm - N/A   Clear
3:00 PM 58 °F - 11 °F 7% 30.12 in - WNW 4.5 mph - -  
3:55 PM 61.2 °F - 27.3 °F 28% 30.08 in 10.0 mi Calm Calm - N/A   Clear
4:55 PM 60.8 °F - 33.4 °F 36% 30.06 in 8.0 mi West 3.5 mph - N/A   Clear
5:55 PM 57.6 °F - 34.9 °F 43% 30.04 in 9.0 mi Calm Calm - N/A   Clear
6:00 PM 52 °F - 22 °F 19% 30.06 in - East 3.5 mph - -  
6:55 PM 54.5 °F - 36.0 °F 50% 30.04 in 9.0 mi West 3.5 mph - N/A   Clear
7:55 PM 50.0 °F - 39.2 °F 66% 30.05 in 8.0 mi Calm Calm - N/A   Clear
8:55 PM 46.9 °F - 41.9 °F 83% 30.04 in 5.0 mi SE 3.5 mph - N/A   Haze
9:00 PM 44 °F - 26 °F 36% 30.07 in - 2.2 mph - -  
9:45 PM 46.4 °F 44.3 °F 39.2 °F 76% 30.03 in 6.0 mi ESE 4.6 mph - N/A   Haze
9:55 PM 47.3 °F - 37.4 °F 68% 30.02 in 6.0 mi East 3.5 mph - N/A   Haze
10:16 PM 46.4 °F 44.3 °F 37.4 °F 71% 30.01 in 6.0 mi ESE 4.6 mph - N/A   Haze
10:55 PM 46.0 °F 43.9 °F 33.1 °F 61% 29.99 in 8.0 mi SE 4.6 mph - N/A   Clear
11:55 PM 48.0 °F - 31.5 °F 53% 29.96 in 10.0 mi Calm Calm - N/A   Clear